Location: Unspecified
(43.8044°N, 11.0278°E)
Time: 22:51:25
(UTC+02:00)

Resurs 1-4 Rocket - Visible Passes

Search period start: 26 March 2017 00:00
Search period end: 05 April 2017 01:00
Orbit: 800 x 814 km, 98.5° (Epoch: 25 March)

Date Brightness Start Highest point End Pass type
(mag) Time Alt. Az. Time Alt. Az. Time Alt. Az.
26 Mar 3.7 03:20:48 10° NNE 03:23:50 31° NE 03:23:50 31° NE visible
26 Mar 3.4 05:01:15 10° N 05:04:55 24° NW 05:04:55 24° NW visible
27 Mar 4.2 02:56:38 10° NE 02:59:05 22° ENE 02:59:05 22° ENE visible
27 Mar 3.0 04:36:15 10° N 04:40:11 35° NW 04:40:11 35° NW visible
28 Mar 4.6 02:32:54 10° NE 02:34:20 14° ENE 02:34:20 14° ENE visible
28 Mar 2.7 04:11:27 10° N 04:15:26 48° NNW 04:15:26 48° NNW visible
29 Mar 2.8 03:46:50 10° NNE 03:50:42 50° NNE 03:50:42 50° NNE visible
29 Mar 3.8 05:28:21 10° NNW 05:31:17 15° WNW 05:31:48 15° WNW visible
30 Mar 3.4 03:22:24 10° NNE 03:25:58 38° NE 03:25:58 38° NE visible
30 Mar 3.4 05:02:55 10° NNW 05:07:02 24° WNW 05:07:03 24° WNW visible
31 Mar 4.0 02:58:13 10° NE 03:01:13 25° ENE 03:01:13 25° ENE visible
31 Mar 2.8 04:37:53 10° N 04:42:19 36° WNW 04:42:19 36° WNW visible
01 Apr 4.5 02:34:26 10° NE 02:36:29 16° ENE 02:36:29 16° ENE visible
01 Apr 2.4 04:13:04 10° N 04:17:34 55° NW 04:17:34 55° NW visible
02 Apr 2.4 03:48:27 10° NNE 03:52:50 62° NNE 03:52:50 62° NNE visible
02 Apr 3.8 05:30:04 10° NNW 05:32:52 15° WNW 05:33:55 14° WNW visible
03 Apr 3.0 03:24:00 10° NNE 03:28:05 44° ENE 03:28:05 44° ENE visible
03 Apr 3.4 05:04:35 10° NNW 05:08:38 23° WNW 05:09:11 22° WNW visible
04 Apr 3.7 02:59:47 10° NNE 03:03:21 29° ENE 03:03:21 29° ENE visible
04 Apr 2.8 04:39:32 10° N 04:44:18 36° WNW 04:44:26 35° WNW visible
